Airfield :
LOGIN :

Register | Disclaimer

   EN    FR    IT 

 










Legend :    VFR   Marginal VFR   IFR   Intensive IFR   Very Intensive IFR
Visi :
Ceiling :
>= 8 km
>= 3000ft
5 to 8 km
1000 to 3000 ft
1500m to 5 km
500 to 1000 ft
800 to 1500m
200 to 500 ft
< 800m
< 200 ft
Symbols :   Thunderstorms  Fog  Heavy snow  Heavy precipitations  Wind > 20 kt
SIGMETs :     Misc.  Thunderstorms  Icing  Turbulence  Mountain Waves  Volcanic Ashes







- Airport Elevation : 512 ft
- IATA code : URO
- Download approach charts


LFOP - Rouen Vallée de Seine

CURRENT METAR :
  • 240100Z AUTO 02004KT CAVOK 12/08 Q1025

EXPIRED METARs :
  • 240030Z AUTO 02005KT CAVOK 13/08 Q1025
  • 240000Z AUTO 01005KT CAVOK 13/08 Q1025
  • 232330Z AUTO 01004KT CAVOK 14/08 Q1025
  • 232300Z AUTO 03004KT CAVOK 14/08 Q1026
  • 232230Z AUTO 01004KT CAVOK 14/08 Q1026
  • 232200Z AUTO 36005KT CAVOK 14/07 Q1026

TAF TAF LFOP
Valid from the 23 at 18:00 until the 24 at 18:00 UTC


231700Z 2318/2418 36007KT CAVOK
ATIS : +33 2 35 80 80 34
Met : +33 2 32 86 52 80
No reported NOTAMs for that airfield.



MET'MAP, your aeronautical weather chart ! - Copyright ORBIFLY December 2007 - Disclaimer

ORBIFLY MET'MAP TEAM :

Programming & Development : Alexandra Zaïnal
Concept & Development : Baudouin d'Aumeries
Co-Development & Prog : Marc-Olivier Méhu
Technical & hardware support : Manuel Goepfert

Contact : metmap@orbifly.com




SOURCES & CREDITS :

   NOAA